星链-2345 (STARLINK-2345 )

导读

STARLINK-2345是美国SpaceX公司星链(Starlink)星座的成员,于2021年3月14日发射升空,归属美国航天运营,部署在近地轨道,属于V1.0版本星链卫星。作为星链低轨互联网星座的组成部分,它承担全球宽带互联网覆盖任务,为偏远区域等提供低延迟网络服务,支撑星链网络服务扩容,助力SpaceX搭建近地卫星互联网组网。

Basic Information
目录编号:
47886
目录名称:
STARLINK-2345
国际标识:
2021-021AC
轨道中心:
EARTH
卫星名称:
星链-2345
卫星全名:
星链-2345 (STARLINK-2345 )
卫星状态:
已陨落 最后检测时间 2023-09-27
发射日期:
2021-03-14 UTC
国别 :
美国 (US)
星等 :
--
Orbit Information
数据来源 国际轨道数据
星历时间: 2023-09-28T04:40:15+0800
轨道信息已过期990天
半长轴: 6564.473km
偏心率: 0.0006646
轨道倾角: 53.028°
近地点辐角 34.107°
升交点赤经 281.768°
平近点角 107.325°
近地点: 181.975km
远地点: 190.701km
周期: 88.218分钟
每日圈数: 16.323114
Detailed Information
固有亮度:
5
最大亮度:
2.5
卫星平台:
Starlink V1.0
覆盖范围:
全球
运营商:
太空探索技术公司
运营商所在国:
美国
制造商(研发单位):
太空探索技术公司
制造商所在国:
美国
使用方式:
暂无
Satellite Introduction
星链(Starlink)计划是由太空探索技术公司(SpaceX)提出的一个巨型低轨卫星互联网星座项目,计划在2019年至2024年间在太空搭建由约1.2万颗卫星组成的“星链”网络,其中1584颗将部署在地球上空550千米处的近地轨道,并从2020年开始工作。该卫星已陨落。